{"data":{"norad_id":66497,"epoch":"2026-05-25T01:47:06.811296Z","epoch_age_seconds":71770,"freshness":"FRESH","line1":"1 66497U 25263N   26145.07438439  .00017181  00000+0  63249-3 0  9990","line2":"2 66497  42.9981 279.0805 0000437 348.2153  11.8688 15.27575582 30583","mean_motion":15.27575582,"eccentricity":4.37e-5,"inclination_deg":42.9981,"raan_deg":279.0805,"arg_perigee_deg":348.2153,"mean_anomaly_deg":11.8688,"bstar":0.00063249,"rev_number":3058,"period_min":94.267021348604,"perigee_km":482.7624907424,"apogee_km":483.36215956341,"semimajor_km":6861.1993251529,"source":"CELESTRAK","updated_at":"2026-05-25T13:38:21.244266Z"}}